SKYSAT-B

Last updated on Mon Sep 07 2026 00:02:45 GMT+0000 (Coordinated Universal Time)

1 40072U 14037D 26249.61968768 .00000738 00000+0 86741-4 0 9999 2 40072 98.3929 213.2727 0006148 26.8233 333.3299 14.88199797658073
UTC large
Height (km)
Speed (km/s)
/
Latitude / Longitude
Inclination (degrees)
Orbital Period (minutes)
Azimuth
Elevation
Range (km)
Doppler Factor

Next 0 passes for location: London (51.5072 / 0.1276)

No passes found over London.
SKYSAT-B